TimeEET,TemperatureF,Dew PointF,Humidity,Sea Level PressureIn,VisibilityMPH,Wind Direction,Wind SpeedMPH,Gust SpeedMPH,PrecipitationIn,Events,Conditions,WindDirDegrees,DateUTC
12:20 AM,51.8,41.0,67,30.04,6.2,WSW,11.5,-,N/A,,Partly Cloudy,250,2012-12-12 22:20:00
12:50 AM,51.8,39.2,62,30.06,6.2,WSW,9.2,-,N/A,,Partly Cloudy,250,2012-12-12 22:50:00
1:20 AM,51.8,39.2,62,30.06,6.2,WSW,9.2,-,N/A,,Partly Cloudy,250,2012-12-12 23:20:00
1:50 AM,51.8,39.2,62,30.06,6.2,WSW,9.2,-,N/A,,Scattered Clouds,250,2012-12-12 23:50:00
2:50 AM,51.8,39.2,62,30.06,6.2,WSW,8.1,-,N/A,,Scattered Clouds,240,2012-12-13 00:50:00
3:20 AM,51.8,39.2,62,30.06,6.2,WSW,9.2,-,N/A,,Scattered Clouds,250,2012-12-13 01:20:00
3:50 AM,51.8,39.2,62,30.06,6.2,West,6.9,-,N/A,,Scattered Clouds,270,2012-12-13 01:50:00
4:20 AM,51.8,39.2,62,30.06,6.2,West,4.6,-,N/A,,Scattered Clouds,270,2012-12-13 02:20:00
4:50 AM,51.8,39.2,62,30.06,6.2,West,5.8,-,N/A,,Scattered Clouds,260,2012-12-13 02:50:00
5:20 AM,51.8,39.2,62,30.06,6.2,West,6.9,-,N/A,,Scattered Clouds,260,2012-12-13 03:20:00
5:50 AM,51.8,39.2,62,30.09,6.2,West,4.6,-,N/A,,Scattered Clouds,270,2012-12-13 03:50:00
6:20 AM,51.8,39.2,62,30.09,6.2,West,4.6,-,N/A,,Scattered Clouds,280,2012-12-13 04:20:00
6:50 AM,50.0,42.8,76,30.09,6.2,WSW,4.6,-,N/A,,Partly Cloudy,240,2012-12-13 04:50:00
7:20 AM,50.0,41.0,71,30.12,6.2,Calm,Calm,-,N/A,,Scattered Clouds,0,2012-12-13 05:20:00
7:50 AM,50.0,42.8,76,30.12,6.2,Calm,Calm,-,N/A,,Scattered Clouds,0,2012-12-13 05:50:00
8:00 AM,50,42,66,30.16,6,Calm,Calm,,,,Partly Cloudy,,2012-12-13 06:00:00
8:20 AM,50.0,42.8,76,30.15,6.2,Calm,Calm,-,N/A,,Mostly Cloudy,0,2012-12-13 06:20:00
8:50 AM,51.8,48.2,88,30.15,6.2,NNW,8.1,-,N/A,,Mostly Cloudy,330,2012-12-13 06:50:00
9:20 AM,53.6,44.6,72,30.15,6.2,North,11.5,-,N/A,,Scattered Clouds,10,2012-12-13 07:20:00
9:50 AM,53.6,44.6,72,30.18,6.2,NNE,9.2,-,N/A,,Scattered Clouds,20,2012-12-13 07:50:00
10:20 AM,53.6,44.6,72,30.18,6.2,NNE,6.9,-,N/A,,Mostly Cloudy,30,2012-12-13 08:20:00
10:50 AM,57.2,42.8,59,30.18,6.2,NNE,4.6,-,N/A,,Mostly Cloudy,20,2012-12-13 08:50:00
11:20 AM,57.2,42.8,59,30.18,6.2,North,5.8,-,N/A,,Scattered Clouds,360,2012-12-13 09:20:00
11:50 AM,57.2,46.4,67,30.21,6.2,NE,4.6,-,N/A,,Scattered Clouds,40,2012-12-13 09:50:00
12:20 PM,57.2,46.4,67,30.21,6.2,NE,11.5,-,N/A,,Scattered Clouds,40,2012-12-13 10:20:00
12:50 PM,55.4,46.4,72,30.21,6.2,NE,10.4,-,N/A,,Scattered Clouds,50,2012-12-13 10:50:00
1:20 PM,55.4,46.4,72,30.21,6.2,NE,9.2,-,N/A,,Scattered Clouds,40,2012-12-13 11:20:00
1:50 PM,55.4,44.6,67,30.18,6.2,NE,8.1,-,N/A,,Scattered Clouds,40,2012-12-13 11:50:00
2:00 PM,55,44,58,30.20,6,NE,8.1,,,,Partly Cloudy,40,2012-12-13 12:00:00
2:20 PM,57.2,44.6,63,30.18,6.2,NE,11.5,-,N/A,,Mostly Cloudy,50,2012-12-13 12:20:00
2:50 PM,57.2,44.6,63,30.18,6.2,NE,12.7,-,N/A,Rain,Light Rain,40,2012-12-13 12:50:00
3:20 PM,57.2,44.6,63,30.18,6.2,NE,12.7,-,N/A,Rain,Light Rain,40,2012-12-13 13:20:00
3:50 PM,53.6,46.4,77,30.18,6.2,NE,8.1,-,N/A,,Mostly Cloudy,50,2012-12-13 13:50:00
4:20 PM,53.6,46.4,77,30.18,6.2,NE,8.1,-,N/A,,Mostly Cloudy,50,2012-12-13 14:20:00
4:50 PM,53.6,44.6,72,30.18,6.2,ENE,9.2,-,N/A,,Mostly Cloudy,70,2012-12-13 14:50:00
5:20 PM,53.6,44.6,72,30.18,6.2,ENE,9.2,-,N/A,,Mostly Cloudy,70,2012-12-13 15:20:00
5:50 PM,53.6,44.6,72,30.24,6.2,NE,9.2,-,N/A,,Mostly Cloudy,50,2012-12-13 15:50:00
6:20 PM,53.6,44.6,72,30.21,6.2,NE,9.2,-,N/A,,Mostly Cloudy,50,2012-12-13 16:20:00
6:50 PM,51.8,42.8,71,30.24,6.2,ENE,6.9,-,N/A,,Mostly Cloudy,70,2012-12-13 16:50:00
7:20 PM,51.8,42.8,71,30.24,6.2,ENE,6.9,-,N/A,,Mostly Cloudy,70,2012-12-13 17:20:00
7:50 PM,51.8,42.8,71,30.24,6.2,ENE,5.8,-,N/A,,Mostly Cloudy,60,2012-12-13 17:50:00
8:00 PM,52,44,64,30.26,6,ENE,5.8,,,,Partly Cloudy,60,2012-12-13 18:00:00
8:20 PM,51.8,42.8,71,30.24,6.2,ENE,5.8,-,N/A,,Mostly Cloudy,60,2012-12-13 18:20:00
8:50 PM,51.8,42.8,71,30.24,6.2,ENE,6.9,-,N/A,,Mostly Cloudy,60,2012-12-13 18:50:00
9:20 PM,51.8,42.8,71,30.24,6.2,ENE,6.9,-,N/A,,Mostly Cloudy,60,2012-12-13 19:20:00
9:50 PM,53.6,42.8,67,30.24,6.2,ENE,9.2,-,N/A,,Mostly Cloudy,70,2012-12-13 19:50:00
10:50 PM,53.6,42.8,67,30.27,6.2,ENE,9.2,-,N/A,,Mostly Cloudy,60,2012-12-13 20:50:00
11:20 PM,53.6,42.8,67,30.27,6.2,ENE,9.2,-,N/A,,Mostly Cloudy,60,2012-12-13 21:20:00
11:50 PM,53.6,42.8,67,30.27,6.2,ENE,9.2,-,N/A,,Mostly Cloudy,60,2012-12-13 21:50:00